Location: Kennington
(51.1500°N, 0.8833°E)
Time: 11:07:28
(UTC+00:00)

CZ-4C R/B - Pass Details

Date: 21 September 2020
Orbit: 626 x 1376 km, 63.4° (Epoch: 30 October)

Event Time Altitude Azimuth Distance (km) Brightness Sun altitude
Exits shadow 01:51:43 17° 314° (NW) 2,156 4.3 -32.2°
Maximum altitude 01:55:15 28° 0° (N) 1,790 4.2 -31.8°
Drops below altitude 10° 02:01:15 10° 57° (ENE) 3,022 5.9 -31.2°
Sets 02:04:41 0° 69° (ENE) 4,107 6.6 -30.9°
